,,Stat6,,Stat2,,Stat8,,Stat9,,Stat10,,Wind1,,Wind1,
time,status,PA1M_AVG,status,PR1M_SUM,status,RH1M_AVG,status,SR1M_AVG,status,TA1M_AVG,status,W1dAve1m,status,W1sAve1m,
2008-05-08, 00:00:00,VALID,918.298,VALID,0,VALID,99.999,VALID,0.0169808,VALID,19.6307,VALID,52,VALID,0,
2008-05-08, 00:01:00,VALID,918.3,VALID,0,VALID,99.9878,VALID,0.0169808,VALID,19.5204,VALID,52,VALID,0,
2008-05-08, 00:02:00,VALID,918.298,VALID,0,VALID,100,VALID,0.0509425,VALID,19.4552,VALID,52,VALID,0,
2008-05-08, 00:03:00,VALID,918.275,VALID,0,VALID,100,VALID,0.0339617,VALID,19.4552,VALID,52,VALID,0,
2008-05-08, 00:04:00,VALID,918.241,VALID,0,VALID,100,VALID,0,VALID,19.429,VALID,52,VALID,0,
2008-05-08, 00:05:00,VALID,918.204,VALID,0,VALID,100,VALID,0.0509425,VALID,19.4006,VALID,52,VALID,0,
2008-05-08, 00:06:00,VALID,918.174,VALID,0,VALID,100,VALID,0,VALID,19.3577,VALID,52,VALID,0,
2008-05-08, 00:07:00,VALID,918.143,VALID,0,VALID,100,VALID,0.0339617,VALID,19.3746,VALID,52,VALID,0,
2008-05-08, 00:08:00,VALID,918.12,VALID,0,VALID,100,VALID,0.0169808,VALID,19.3933,VALID,52,VALID,0,
2008-05-08, 00:09:00,VALID,918.127,VALID,0,VALID,100,VALID,0.0339617,VALID,19.4293,VALID,52,VALID,0,
2008-05-08, 00:10:00,VALID,918.131,VALID,0,VALID,100,VALID,0.0509425,VALID,19.4135,VALID,52,VALID,0,
2008-05-08, 00:11:00,VALID,918.135,VALID,0,VALID,100,VALID,0.0679233,VALID,19.3669,VALID,52,VALID,0,
2008-05-08, 00:12:00,VALID,918.139,VALID,0,VALID,100,VALID,0.0169808,VALID,19.3637,VALID,52,VALID,0,
2008-05-08, 00:13:00,VALID,918.134,VALID,0,VALID,100,VALID,0.0169808,VALID,19.4096,VALID,52,VALID,0,
2008-05-08, 00:14:00,VALID,918.11,VALID,0,VALID,100,VALID,0.0509425,VALID,19.426,VALID,52,VALID,0,
2008-05-08, 00:15:00,VALID,918.106,VALID,0,VALID,100,VALID,0.0509425,VALID,19.4388,VALID,52,VALID,0,
2008-05-08, 00:16:00,VALID,918.086,VALID,0,VALID,100,VALID,0,VALID,19.4874,VALID,52,VALID,0,
2008-05-08, 00:17:00,VALID,918.08,VALID,0,VALID,100,VALID,0,VALID,19.5558,VALID,52,VALID,0,
2008-05-08, 00:18:00,VALID,918.062,VALID,0,VALID,100,VALID,0.0169808,VALID,19.5743,VALID,52,VALID,0,
2008-05-08, 00:19:00,VALID,918.041,VALID,0,VALID,100,VALID,0.0169808,VALID,19.6299,VALID,52,VALID,0,
2008-05-08, 00:20:00,VALID,918.019,VALID,0,VALID,100,VALID,0.0169808,VALID,19.6888,VALID,52,VALID,0,
2008-05-08, 00:21:00,VALID,918.016,VALID,0,VALID,100,VALID,0.0339617,VALID,19.7213,VALID,52,VALID,0,
2008-05-08, 00:22:00,VALID,917.973,VALID,0,VALID,100,VALID,0.0509425,VALID,19.7143,VALID,52,VALID,0,
2008-05-08, 00:23:00,VALID,917.951,VALID,0,VALID,100,VALID,0.0339617,VALID,19.6491,VALID,52,VALID,0,
2008-05-08, 00:24:00,VALID,917.931,VALID,0,VALID,100,VALID,0.0339617,VALID,19.3901,VALID,52,VALID,0,
2008-05-08, 00:25:00,VALID,917.9,VALID,0,VALID,100,VALID,0.0679233,VALID,19.2471,VALID,52,VALID,0,
2008-05-08, 00:26:00,VALID,917.874,VALID,0,VALID,100,VALID,0.0169808,VALID,19.2179,VALID,52,VALID,0,
2008-05-08, 00:27:00,VALID,917.846,VALID,0,VALID,100,VALID,0.0509425,VALID,19.2636,VALID,57,VALID,0,
2008-05-08, 00:28:00,VALID,917.819,VALID,0,VALID,100,VALID,0.0169808,VALID,19.3417,VALID,59,VALID,0,
2008-05-08, 00:29:00,VALID,917.799,VALID,0,VALID,100,VALID,0,VALID,19.442,VALID,59,VALID,0,
2008-05-08, 00:30:00,VALID,917.771,VALID,0,VALID,100,VALID,0.0679233,VALID,19.4867,VALID,59,VALID,0,
2008-05-08, 00:31:00,VALID,917.75,VALID,0,VALID,100,VALID,0.0339617,VALID,19.4645,VALID,59,VALID,0,
2008-05-08, 00:32:00,VALID,917.731,VALID,0,VALID,100,VALID,0.0509425,VALID,19.4388,VALID,59,VALID,0,
2008-05-08, 00:33:00,VALID,917.734,VALID,0,VALID,100,VALID,0.0509425,VALID,19.4028,VALID,59,VALID,0,
2008-05-08, 00:34:00,VALID,917.701,VALID,0,VALID,100,VALID,0.0509425,VALID,19.3382,VALID,59,VALID,0,
2008-05-08, 00:35:00,VALID,917.698,VALID,0,VALID,100,VALID,0.0169808,VALID,19.2274,VALID,59,VALID,0,
2008-05-08, 00:36:00,VALID,917.67,VALID,0,VALID,100,VALID,0.0509425,VALID,19.2501,VALID,59,VALID,0,
2008-05-08, 00:37:00,VALID,917.66,VALID,0,VALID,100,VALID,0,VALID,19.2668,VALID,59,VALID,0,
2008-05-08, 00:38:00,VALID,917.621,VALID,0,VALID,100,VALID,0.0339617,VALID,19.2534,VALID,59,VALID,0,
2008-05-08, 00:39:00,VALID,917.595,VALID,0,VALID,100,VALID,0,VALID,19.2404,VALID,59,VALID,0,
2008-05-08, 00:40:00,VALID,917.571,VALID,0,VALID,100,VALID,0,VALID,19.205,VALID,59,VALID,0,
2008-05-08, 00:41:00,VALID,917.564,VALID,0,VALID,100,VALID,0,VALID,19.1755,VALID,59,VALID,0,
2008-05-08, 00:42:00,VALID,917.558,VALID,0,VALID,100,VALID,0.0339617,VALID,19.1558,VALID,59,VALID,0,
2008-05-08, 00:43:00,VALID,917.549,VALID,0,VALID,100,VALID,0.0339617,VALID,19.1396,VALID,59,VALID,0,
2008-05-08, 00:44:00,VALID,917.549,VALID,0,VALID,100,VALID,0.0849042,VALID,19.1431,VALID,59,VALID,0,
2008-05-08, 00:45:00,VALID,917.532,VALID,0,VALID,100,VALID,0.0339617,VALID,19.169,VALID,59,VALID,0,
2008-05-08, 00:46:00,VALID,917.51,VALID,0,VALID,100,VALID,0.0169808,VALID,19.1917,VALID,59,VALID,0,
2008-05-08, 00:47:00,VALID,917.491,VALID,0,VALID,100,VALID,0.0169808,VALID,19.2307,VALID,59,VALID,0,
2008-05-08, 00:48:00,VALID,917.466,VALID,0,VALID,100,VALID,0.0169808,VALID,19.2633,VALID,59,VALID,0,
2008-05-08, 00:49:00,VALID,917.459,VALID,0,VALID,100,VALID,0,VALID,19.312,VALID,59,VALID,0,
2008-05-08, 00:50:00,VALID,917.446,VALID,0,VALID,100,VALID,0,VALID,19.3452,VALID,59,VALID,0,
2008-05-08, 00:51:00,VALID,917.433,VALID,0,VALID,100,VALID,0,VALID,19.2444,VALID,59,VALID,0,
2008-05-08, 00:52:00,VALID,917.414,VALID,0,VALID,100,VALID,0,VALID,19.169,VALID,59,VALID,0,
2008-05-08, 00:53:00,VALID,917.392,VALID,0,VALID,100,VALID,-0.0849042,VALID,19.1316,VALID,59,VALID,0,
2008-05-08, 00:54:00,VALID,917.385,VALID,0,VALID,100,VALID,-0.0509425,VALID,19.1118,VALID,59,VALID,0,
2008-05-08, 00:55:00,VALID,917.366,VALID,0,VALID,100,VALID,-0.0679233,VALID,19.151,VALID,59,VALID,0,
2008-05-08, 00:56:00,VALID,917.358,VALID,0,VALID,100,VALID,-0.101885,VALID,19.1899,VALID,59,VALID,0,
2008-05-08, 00:57:00,VALID,917.341,VALID,0,VALID,100,VALID,-0.101885,VALID,19.2354,VALID,59,VALID,0,
2008-05-08, 00:58:00,VALID,917.306,VALID,0,VALID,100,VALID,-0.0679233,VALID,19.2708,VALID,59,VALID,0,
2008-05-08, 00:59:00,VALID,917.276,VALID,0,VALID,100,VALID,-0.0849042,VALID,19.3232,VALID,59,VALID,0,
2008-05-08, 01:00:00,VALID,917.253,VALID,0,VALID,100,VALID,-0.0849042,VALID,19.3784,VALID,59,VALID,0,
2008-05-08, 01:01:00,VALID,917.226,VALID,0,VALID,100,VALID,-0.0849042,VALID,19.414,VALID,59,VALID,0,
2008-05-08, 01:02:00,VALID,917.23,VALID,0,VALID,100,VALID,-0.0849042,VALID,19.3751,VALID,59,VALID,0,
2008-05-08, 01:03:00,VALID,917.225,VALID,0,VALID,100,VALID,-0.0849042,VALID,19.323,VALID,59,VALID,0,
2008-05-08, 01:04:00,VALID,917.217,VALID,0,VALID,100,VALID,-0.0849042,VALID,19.304,VALID,66,VALID,0,
2008-05-08, 01:05:00,VALID,917.203,VALID,0,VALID,100,VALID,-0.101885,VALID,19.294,VALID,100,VALID,0,
2008-05-08, 01:06:00,VALID,917.178,VALID,0,VALID,100,VALID,-0.101885,VALID,19.271,VALID,100,VALID,0,
2008-05-08, 01:07:00,VALID,917.138,VALID,0,VALID,100,VALID,-0.0849042,VALID,19.2745,VALID,100,VALID,0,
2008-05-08, 01:08:00,VALID,917.112,VALID,0,VALID,100,VALID,0.0339617,VALID,19.2756,VALID,100,VALID,0,
2008-05-08, 01:09:00,VALID,917.083,VALID,0,VALID,100,VALID,0.0169808,VALID,19.2531,VALID,100,VALID,0,
2008-05-08, 01:10:00,VALID,917.05,VALID,0,VALID,100,VALID,0.0169808,VALID,19.2374,VALID,100,VALID,0,
2008-05-08, 01:11:00,VALID,917.02,VALID,0,VALID,100,VALID,0.0169808,VALID,19.1885,VALID,100,VALID,0,
2008-05-08, 01:12:00,VALID,916.987,VALID,0,VALID,100,VALID,0,VALID,19.1174,VALID,100,VALID,0,
2008-05-08, 01:13:00,VALID,916.947,VALID,0,VALID,100,VALID,0.0509425,VALID,19.0814,VALID,100,VALID,0,
2008-05-08, 01:14:00,VALID,916.932,VALID,0,VALID,100,VALID,0.0169808,VALID,19.062,VALID,100,VALID,0,
2008-05-08, 01:15:00,VALID,916.918,VALID,0,VALID,100,VALID,0.0169808,VALID,19.0393,VALID,100,VALID,0,
2008-05-08, 01:16:00,VALID,916.893,VALID,0,VALID,100,VALID,0,VALID,19.0133,VALID,100,VALID,0,
2008-05-08, 01:17:00,VALID,916.889,VALID,0,VALID,100,VALID,0,VALID,18.9652,VALID,100,VALID,0,
2008-05-08, 01:18:00,VALID,916.887,VALID,0,VALID,100,VALID,0,VALID,18.8806,VALID,100,VALID,0,
2008-05-08, 01:19:00,VALID,916.883,VALID,0,VALID,100,VALID,0.0169808,VALID,18.7636,VALID,70,VALID,0,
2008-05-08, 01:20:00,VALID,916.878,VALID,0,VALID,100,VALID,0.0169808,VALID,18.6533,VALID,62,VALID,0,
2008-05-08, 01:21:00,VALID,916.879,VALID,0,VALID,100,VALID,0,VALID,18.6663,VALID,62,VALID,0,
2008-05-08, 01:22:00,VALID,916.892,VALID,0,VALID,100,VALID,0,VALID,18.7733,VALID,62,VALID,0,
2008-05-08, 01:23:00,VALID,916.883,VALID,0,VALID,100,VALID,0.0339617,VALID,18.8771,VALID,62,VALID,0,
2008-05-08, 01:24:00,VALID,916.88,VALID,0,VALID,100,VALID,0.101885,VALID,18.9485,VALID,62,VALID,0,
2008-05-08, 01:25:00,VALID,916.86,VALID,0,VALID,100,VALID,0.0339617,VALID,19.0006,VALID,62,VALID,0,
2008-05-08, 01:26:00,VALID,916.839,VALID,0,VALID,100,VALID,0.0339617,VALID,19.0365,VALID,62,VALID,0,
2008-05-08, 01:27:00,VALID,916.811,VALID,0,VALID,100,VALID,0.0509425,VALID,19.0103,VALID,62,VALID,0,
2008-05-08, 01:28:00,VALID,916.785,VALID,0,VALID,100,VALID,0.0509425,VALID,19.0073,VALID,62,VALID,0,
2008-05-08, 01:29:00,VALID,916.755,VALID,0,VALID,100,VALID,0.0849042,VALID,18.9809,VALID,62,VALID,0,
2008-05-08, 01:30:00,VALID,916.732,VALID,0,VALID,100,VALID,0.0849042,VALID,18.929,VALID,60,VALID,0,
2008-05-08, 01:31:00,VALID,916.716,VALID,0,VALID,100,VALID,0.0339617,VALID,18.8903,VALID,48,VALID,0.203488,
2008-05-08, 01:32:00,VALID,916.701,VALID,0,VALID,100,VALID,0.0679233,VALID,18.8507,VALID,44,VALID,0,
2008-05-08, 01:33:00,VALID,916.693,VALID,0,VALID,100,VALID,0.0509425,VALID,18.8771,VALID,44,VALID,0,
2008-05-08, 01:34:00,VALID,916.686,VALID,0,VALID,100,VALID,0.0679233,VALID,18.8901,VALID,44,VALID,0,
2008-05-08, 01:35:00,VALID,916.667,VALID,0,VALID,100,VALID,0.0339617,VALID,18.8836,VALID,44,VALID,0,
2008-05-08, 01:36:00,VALID,916.642,VALID,0,VALID,100,VALID,0.0339617,VALID,18.8868,VALID,44,VALID,0,
2008-05-08, 01:37:00,VALID,916.627,VALID,0,VALID,100,VALID,0.0509425,VALID,18.9582,VALID,44,VALID,0,
2008-05-08, 01:38:00,VALID,916.636,VALID,0,VALID,100,VALID,-0.0509425,VALID,18.9566,VALID,44,VALID,0,
2008-05-08, 01:39:00,VALID,916.642,VALID,0,VALID,100,VALID,-0.0849042,VALID,18.9175,VALID,44,VALID,0,
2008-05-08, 01:40:00,VALID,916.647,VALID,0,VALID,100,VALID,-0.0679233,VALID,18.8917,VALID,44,VALID,0,
2008-05-08, 01:41:00,VALID,916.662,VALID,0,VALID,100,VALID,-0.0849042,VALID,18.8753,VALID,44,VALID,0,
2008-05-08, 01:42:00,VALID,916.66,VALID,0,VALID,100,VALID,-0.0849042,VALID,18.869,VALID,44,VALID,0,
2008-05-08, 01:43:00,VALID,916.67,VALID,0,VALID,100,VALID,-0.0849042,VALID,18.8783,VALID,44,VALID,0,
2008-05-08, 01:44:00,VALID,916.655,VALID,0,VALID,100,VALID,-0.0679233,VALID,18.8785,VALID,44,VALID,0,
2008-05-08, 01:45:00,VALID,916.639,VALID,0,VALID,100,VALID,-0.0169808,VALID,18.8461,VALID,44,VALID,0,
2008-05-08, 01:46:00,VALID,916.629,VALID,0,VALID,100,VALID,-0.0509425,VALID,18.8009,VALID,44,VALID,0,
2008-05-08, 01:47:00,VALID,916.615,VALID,0,VALID,100,VALID,-0.0339617,VALID,18.762,VALID,44,VALID,0,
2008-05-08, 01:48:00,VALID,916.584,VALID,0,VALID,100,VALID,-0.0679233,VALID,18.7326,VALID,44,VALID,0,
2008-05-08, 01:49:00,VALID,916.572,VALID,0,VALID,100,VALID,-0.0169808,VALID,18.6936,VALID,44,VALID,0,
2008-05-08, 01:50:00,VALID,916.565,VALID,0,VALID,100,VALID,-0.101885,VALID,18.6582,VALID,44,VALID,0,
2008-05-08, 01:51:00,VALID,916.538,VALID,0,VALID,100,VALID,-0.0169808,VALID,18.6125,VALID,44,VALID,0,
2008-05-08, 01:52:00,VALID,916.542,VALID,0,VALID,100,VALID,-0.0849042,VALID,18.5806,VALID,44,VALID,0,
2008-05-08, 01:53:00,VALID,916.549,VALID,0,VALID,100,VALID,0.0169808,VALID,18.5562,VALID,44,VALID,0,
2008-05-08, 01:54:00,VALID,916.562,VALID,0,VALID,100,VALID,0.0169808,VALID,18.5333,VALID,44,VALID,0,
2008-05-08, 01:55:00,VALID,916.584,VALID,0,VALID,100,VALID,0.101885,VALID,18.5106,VALID,44,VALID,0,
2008-05-08, 01:56:00,VALID,916.585,VALID,0,VALID,100,VALID,0.0679233,VALID,18.4877,VALID,44,VALID,0,
2008-05-08, 01:57:00,VALID,916.616,VALID,0,VALID,100,VALID,0.0509425,VALID,18.4976,VALID,44,VALID,0,
2008-05-08, 01:58:00,VALID,916.624,VALID,0,VALID,100,VALID,0.0509425,VALID,18.4812,VALID,44,VALID,0,
2008-05-08, 01:59:00,VALID,916.616,VALID,0,VALID,100,VALID,0.101885,VALID,18.465,VALID,44,VALID,0,
2008-05-08, 02:00:00,VALID,916.602,VALID,0,VALID,100,VALID,0.0339617,VALID,18.4555,VALID,44,VALID,0,
2008-05-08, 02:01:00,VALID,916.588,VALID,0,VALID,100,VALID,0.0849042,VALID,18.433,VALID,44,VALID,0,
2008-05-08, 02:02:00,VALID,916.578,VALID,0,VALID,100,VALID,0.0339617,VALID,18.3519,VALID,44,VALID,0,
2008-05-08, 02:03:00,VALID,916.557,VALID,0,VALID,100,VALID,0.0339617,VALID,18.3158,VALID,44,VALID,0,
2008-05-08, 02:04:00,VALID,916.529,VALID,0,VALID,100,VALID,0.0679233,VALID,18.3484,VALID,44,VALID,0,
2008-05-08, 02:05:00,VALID,916.517,VALID,0,VALID,100,VALID,0.0339617,VALID,18.3711,VALID,44,VALID,0,
2008-05-08, 02:06:00,VALID,916.521,VALID,0,VALID,100,VALID,0.0339617,VALID,18.4457,VALID,44,VALID,0,
2008-05-08, 02:07:00,VALID,916.511,VALID,0,VALID,100,VALID,0.0339617,VALID,18.3776,VALID,44,VALID,0,
2008-05-08, 02:08:00,VALID,916.514,VALID,0,VALID,100,VALID,-0.0679233,VALID,18.3823,VALID,44,VALID,0.35665,
2008-05-08, 02:09:00,VALID,916.522,VALID,0,VALID,100,VALID,-0.0509425,VALID,18.5868,VALID,36,VALID,0.527902,
2008-05-08, 02:10:00,VALID,916.532,VALID,0,VALID,100,VALID,-0.0679233,VALID,18.6969,VALID,23,VALID,0.748698,
2008-05-08, 02:11:00,VALID,916.525,VALID,0,VALID,100,VALID,-0.0339617,VALID,18.8755,VALID,22,VALID,0.278993,
2008-05-08, 02:12:00,VALID,916.533,VALID,0,VALID,100,VALID,-0.0339617,VALID,18.9721,VALID,20,VALID,0,
2008-05-08, 02:13:00,VALID,916.544,VALID,0,VALID,100,VALID,-0.0679233,VALID,19.008,VALID,28,VALID,0.565848,
2008-05-08, 02:14:00,VALID,916.557,VALID,0,VALID,100,VALID,-0.0339617,VALID,19.0277,VALID,25,VALID,0.738991,
2008-05-08, 02:15:00,VALID,916.557,VALID,0,VALID,100,VALID,-0.0169808,VALID,19.0664,VALID,4,VALID,0.731399,
2008-05-08, 02:16:00,VALID,916.567,VALID,0,VALID,100,VALID,0,VALID,19.1218,VALID,8,VALID,0.275,
2008-05-08, 02:17:00,VALID,916.55,VALID,0,VALID,100,VALID,-0.0849042,VALID,19.1737,VALID,8,VALID,0.216211,
2008-05-08, 02:18:00,VALID,916.539,VALID,0,VALID,100,VALID,-0.0849042,VALID,19.1997,VALID,8,VALID,0,
2008-05-08, 02:19:00,VALID,916.535,VALID,0,VALID,100,VALID,-0.0679233,VALID,19.2386,VALID,8,VALID,0,
2008-05-08, 02:20:00,VALID,916.518,VALID,0,VALID,100,VALID,-0.0679233,VALID,19.2259,VALID,14,VALID,0,
2008-05-08, 02:21:00,VALID,916.522,VALID,0,VALID,100,VALID,-0.0679233,VALID,19.2029,VALID,24,VALID,0,
2008-05-08, 02:22:00,VALID,916.519,VALID,0,VALID,100,VALID,-0.0679233,VALID,19.2059,VALID,41,VALID,0.0113467,
2008-05-08, 02:23:00,VALID,916.503,VALID,0,VALID,100,VALID,-0.0339617,VALID,19.2189,VALID,35,VALID,0.367551,
2008-05-08, 02:24:00,VALID,916.516,VALID,0,VALID,100,VALID,-0.0509425,VALID,19.2451,VALID,33,VALID,0.586846,
2008-05-08, 02:25:00,VALID,916.512,VALID,0,VALID,100,VALID,-0.0509425,VALID,19.2388,VALID,30,VALID,0.706854,
2008-05-08, 02:26:00,VALID,916.536,VALID,0,VALID,100,VALID,-0.0679233,VALID,19.2129,VALID,23,VALID,1.0129,
2008-05-08, 02:27:00,VALID,916.551,VALID,0,VALID,100,VALID,-0.0679233,VALID,19.2289,VALID,15,VALID,0.834413,
2008-05-08, 02:28:00,VALID,916.558,VALID,0,VALID,100,VALID,-0.0509425,VALID,19.2481,VALID,14,VALID,0.828472,
2008-05-08, 02:29:00,VALID,916.542,VALID,0,VALID,100,VALID,-0.101885,VALID,19.2805,VALID,1,VALID,0.606286,
2008-05-08, 02:30:00,VALID,916.513,VALID,0,VALID,100,VALID,-0.0509425,VALID,19.3035,VALID,27,VALID,0.810764,
2008-05-08, 02:31:00,VALID,916.502,VALID,0,VALID,100,VALID,-0.0679233,VALID,19.3424,VALID,29,VALID,0.860243,
2008-05-08, 02:32:00,VALID,916.49,VALID,0,VALID,100,VALID,-0.0679233,VALID,19.3614,VALID,30,VALID,0.381541,
2008-05-08, 02:33:00,VALID,916.471,VALID,0,VALID,100,VALID,-0.0169808,VALID,19.3846,VALID,30,VALID,0.315225,
2008-05-08, 02:34:00,VALID,916.45,VALID,0,VALID,100,VALID,-0.0339617,VALID,19.3908,VALID,30,VALID,0.00241815,
2008-05-08, 02:35:00,VALID,916.445,VALID,0,VALID,100,VALID,-0.0679233,VALID,19.3684,VALID,39,VALID,0,
2008-05-08, 02:36:00,VALID,916.438,VALID,0,VALID,100,VALID,-0.0849042,VALID,19.3489,VALID,19,VALID,0.397461,
2008-05-08, 02:37:00,VALID,916.445,VALID,0,VALID,100,VALID,-0.0509425,VALID,19.3519,VALID,6,VALID,0.572493,
2008-05-08, 02:38:00,VALID,916.481,VALID,0,VALID,100,VALID,-0.0169808,VALID,19.3489,VALID,18,VALID,0.116279,
2008-05-08, 02:39:00,VALID,916.508,VALID,0,VALID,100,VALID,-0.0679233,VALID,19.3262,VALID,6,VALID,0.363281,
2008-05-08, 02:40:00,VALID,916.516,VALID,0,VALID,100,VALID,-0.0509425,VALID,19.3392,VALID,4,VALID,0.748047,
2008-05-08, 02:41:00,VALID,916.507,VALID,0,VALID,100,VALID,-0.0169808,VALID,19.3554,VALID,3,VALID,0.33631,
2008-05-08, 02:42:00,VALID,916.494,VALID,0,VALID,100,VALID,-0.0169808,VALID,19.3619,VALID,26,VALID,0.551235,
2008-05-08, 02:43:00,VALID,916.486,VALID,0,VALID,100,VALID,-0.0339617,VALID,19.3357,VALID,31,VALID,0.349201,
2008-05-08, 02:44:00,VALID,916.469,VALID,0,VALID,100,VALID,-0.0679233,VALID,19.3132,VALID,19,VALID,0,
2008-05-08, 02:45:00,VALID,916.472,VALID,0,VALID,100,VALID,-0.0509425,VALID,19.3359,VALID,20,VALID,0.139101,
2008-05-08, 02:46:00,VALID,916.471,VALID,0,VALID,100,VALID,-0.0339617,VALID,19.3489,VALID,15,VALID,0.395032,
2008-05-08, 02:47:00,VALID,916.437,VALID,0,VALID,100,VALID,-0.0509425,VALID,19.3554,VALID,24,VALID,0.780506,
2008-05-08, 02:48:00,VALID,916.422,VALID,0,VALID,100,VALID,-0.0169808,VALID,19.3619,VALID,40,VALID,0.850142,
2008-05-08, 02:49:00,VALID,916.39,VALID,0,VALID,100,VALID,-0.0509425,VALID,19.3487,VALID,45,VALID,0.699041,
2008-05-08, 02:50:00,VALID,916.345,VALID,0,VALID,100,VALID,-0.0679233,VALID,19.3457,VALID,35,VALID,1.123,
2008-05-08, 02:51:00,VALID,916.324,VALID,0,VALID,100,VALID,-0.0339617,VALID,19.3619,VALID,34,VALID,0.839134,
2008-05-08, 02:52:00,VALID,916.3,VALID,0,VALID,100,VALID,-0.0339617,VALID,19.3684,VALID,34,VALID,0.619549,
2008-05-08, 02:53:00,VALID,916.275,VALID,0,VALID,100,VALID,-0.0849042,VALID,19.3719,VALID,47,VALID,0,
2008-05-08, 02:54:00,VALID,916.26,VALID,0,VALID,100,VALID,-0.0169808,VALID,19.3878,VALID,29,VALID,0,
2008-05-08, 02:55:00,VALID,916.26,VALID,0,VALID,100,VALID,-0.0679233,VALID,19.3816,VALID,32,VALID,0,
2008-05-08, 02:56:00,VALID,916.276,VALID,0,VALID,100,VALID,-0.0509425,VALID,19.3784,VALID,32,VALID,0,
2008-05-08, 02:57:00,VALID,916.282,VALID,0,VALID,100,VALID,-0.0679233,VALID,19.3943,VALID,27,VALID,0,
2008-05-08, 02:58:00,VALID,916.298,VALID,0,VALID,100,VALID,-0.0509425,VALID,19.3878,VALID,20,VALID,0,
2008-05-08, 02:59:00,VALID,916.296,VALID,0,VALID,100,VALID,-0.0679233,VALID,19.3911,VALID,20,VALID,0,
2008-05-08, 03:00:00,VALID,916.297,VALID,0,VALID,100,VALID,-0.0509425,VALID,19.3908,VALID,20,VALID,0,
2008-05-08, 03:01:00,VALID,916.292,VALID,0,VALID,100,VALID,-0.0339617,VALID,19.3876,VALID,20,VALID,0,
2008-05-08, 03:02:00,VALID,916.289,VALID,0,VALID,100,VALID,-0.0849042,VALID,19.3878,VALID,29,VALID,0,
2008-05-08, 03:03:00,VALID,916.295,VALID,0,VALID,100,VALID,-0.0169808,VALID,19.3936,VALID,29,VALID,0,
2008-05-08, 03:04:00,VALID,916.303,VALID,0,VALID,100,VALID,-0.0509425,VALID,19.4041,VALID,29,VALID,0,
2008-05-08, 03:05:00,VALID,916.296,VALID,0,VALID,100,VALID,-0.0339617,VALID,19.3684,VALID,29,VALID,0,
2008-05-08, 03:06:00,VALID,916.293,VALID,0,VALID,100,VALID,-0.0339617,VALID,19.3489,VALID,51,VALID,0,
2008-05-08, 03:07:00,VALID,916.305,VALID,0,VALID,100,VALID,-0.0339617,VALID,19.3552,VALID,59,VALID,0,
2008-05-08, 03:08:00,VALID,916.315,VALID,0,VALID,100,VALID,-0.0169808,VALID,19.3616,VALID,59,VALID,0,
2008-05-08, 03:09:00,VALID,916.318,VALID,0,VALID,100,VALID,-0.0169808,VALID,19.3679,VALID,59,VALID,0,
2008-05-08, 03:10:00,VALID,916.316,VALID,0,VALID,100,VALID,-0.0169808,VALID,19.3746,VALID,58,VALID,0,
2008-05-08, 03:11:00,VALID,916.337,VALID,0,VALID,100,VALID,-0.0339617,VALID,19.3711,VALID,47,VALID,0,
2008-05-08, 03:12:00,VALID,916.344,VALID,0,VALID,100,VALID,-0.0509425,VALID,19.3908,VALID,41,VALID,0,
2008-05-08, 03:13:00,VALID,916.341,VALID,0,VALID,100,VALID,-0.0339617,VALID,19.3878,VALID,29,VALID,0,
2008-05-08, 03:14:00,VALID,916.34,VALID,0,VALID,100,VALID,-0.0509425,VALID,19.3876,VALID,29,VALID,0,
2008-05-08, 03:15:00,VALID,916.32,VALID,0,VALID,100,VALID,-0.0679233,VALID,19.3946,VALID,29,VALID,0,
2008-05-08, 03:16:00,VALID,916.3,VALID,0,VALID,100,VALID,-0.0169808,VALID,19.3973,VALID,29,VALID,0,
2008-05-08, 03:17:00,VALID,916.265,VALID,0,VALID,100,VALID,0,VALID,19.3776,VALID,29,VALID,0,
2008-05-08, 03:18:00,VALID,916.224,VALID,0,VALID,100,VALID,-0.0339617,VALID,19.3746,VALID,29,VALID,0,
2008-05-08, 03:19:00,VALID,916.203,VALID,0,VALID,100,VALID,0,VALID,19.3746,VALID,29,VALID,0,
2008-05-08, 03:20:00,VALID,916.178,VALID,0,VALID,100,VALID,-0.0339617,VALID,19.3749,VALID,29,VALID,0,
2008-05-08, 03:21:00,VALID,916.158,VALID,0,VALID,100,VALID,-0.0509425,VALID,19.3654,VALID,29,VALID,0,
2008-05-08, 03:22:00,VALID,916.145,VALID,0,VALID,100,VALID,-0.0339617,VALID,19.3354,VALID,29,VALID,0,
2008-05-08, 03:23:00,VALID,916.115,VALID,0,VALID,100,VALID,-0.0169808,VALID,19.3457,VALID,29,VALID,0,
2008-05-08, 03:24:00,VALID,916.099,VALID,0,VALID,100,VALID,0,VALID,19.3487,VALID,29,VALID,0,
2008-05-08, 03:25:00,VALID,916.077,VALID,0,VALID,100,VALID,-0.0169808,VALID,19.3586,VALID,28,VALID,0,
2008-05-08, 03:26:00,VALID,916.049,VALID,0,VALID,100,VALID,-0.0339617,VALID,19.3749,VALID,7,VALID,0,
2008-05-08, 03:27:00,VALID,916.022,VALID,0,VALID,100,VALID,-0.0169808,VALID,19.3941,VALID,332,VALID,0,
2008-05-08, 03:28:00,VALID,915.994,VALID,0,VALID,100,VALID,-0.0169808,VALID,19.4041,VALID,332,VALID,0,
2008-05-08, 03:29:00,VALID,915.975,VALID,0,VALID,100,VALID,-0.0169808,VALID,19.417,VALID,332,VALID,0,
2008-05-08, 03:30:00,VALID,915.968,VALID,0,VALID,100,VALID,-0.0339617,VALID,19.4333,VALID,332,VALID,0,
2008-05-08, 03:31:00,VALID,915.978,VALID,0,VALID,100,VALID,-0.0169808,VALID,19.4333,VALID,332,VALID,0,
2008-05-08, 03:32:00,VALID,915.986,VALID,0,VALID,100,VALID,-0.0509425,VALID,19.4368,VALID,332,VALID,0,
2008-05-08, 03:33:00,VALID,916.002,VALID,0,VALID,100,VALID,-0.0509425,VALID,19.4365,VALID,332,VALID,0,
2008-05-08, 03:34:00,VALID,915.99,VALID,0,VALID,100,VALID,-0.0169808,VALID,19.4268,VALID,354,VALID,0,
2008-05-08, 03:35:00,VALID,915.975,VALID,0,VALID,100,VALID,0.0169808,VALID,19.3878,VALID,357,VALID,0,
2008-05-08, 03:36:00,VALID,915.969,VALID,0,VALID,100,VALID,0,VALID,19.3357,VALID,357,VALID,0,
2008-05-08, 03:37:00,VALID,915.988,VALID,0,VALID,100,VALID,0,VALID,19.3132,VALID,357,VALID,0,
2008-05-08, 03:38:01,VALID,915.999,VALID,0,VALID,100,VALID,0,VALID,19.2935,VALID,357,VALID,0,
2008-05-08, 03:39:00,VALID,916.022,VALID,0,VALID,100,VALID,-0.0169808,VALID,19.287,VALID,357,VALID,0,
2008-05-08, 03:40:00,VALID,916.037,VALID,0,VALID,100,VALID,-0.0169808,VALID,19.293,VALID,357,VALID,0,
2008-05-08, 03:41:00,VALID,916.059,VALID,0,VALID,100,VALID,-0.0169808,VALID,19.323,VALID,324,VALID,0,
2008-05-08, 03:42:00,VALID,916.083,VALID,0,VALID,100,VALID,-0.0169808,VALID,19.3225,VALID,291,VALID,0,
2008-05-08, 03:43:01,VALID,916.099,VALID,0,VALID,100,VALID,0,VALID,19.313,VALID,197,VALID,0,
2008-05-08, 03:44:00,VALID,916.108,VALID,0,VALID,100,VALID,-0.0169808,VALID,19.31,VALID,197,VALID,0,
2008-05-08, 03:45:00,VALID,916.101,VALID,0,VALID,100,VALID,-0.0169808,VALID,19.3067,VALID,197,VALID,0,
2008-05-08, 03:46:00,VALID,916.102,VALID,0,VALID,100,VALID,-0.0169808,VALID,19.2905,VALID,197,VALID,0,
2008-05-08, 03:47:00,VALID,916.106,VALID,0,VALID,100,VALID,-0.0169808,VALID,19.3097,VALID,197,VALID,0,
2008-05-08, 03:48:00,VALID,916.12,VALID,0,VALID,100,VALID,0,VALID,19.3067,VALID,197,VALID,0,
2008-05-08, 03:49:00,VALID,916.135,VALID,0,VALID,100,VALID,-0.0339617,VALID,19.2938,VALID,197,VALID,0,
2008-05-08, 03:50:00,VALID,916.156,VALID,0,VALID,100,VALID,0,VALID,19.2903,VALID,197,VALID,0,
2008-05-08, 03:51:01,VALID,916.168,VALID,0,VALID,100,VALID,-0.0169808,VALID,19.297,VALID,197,VALID,0,